Location: Gleizolles
(44.4833°N, 6.7667°E)
Time: 12:00:30
(UTC+00:00)

Transit 4A - Pass Details

Date: 03 July 2024
Orbit: 869 x 973 km, 66.8° (Epoch: 22 July)

Event Time Altitude Azimuth Distance (km) Brightness Sun altitude
Rises 22:04:50 0° 284° (WNW) 3,457 11.4 -19.4°
Reaches altitude 10° 22:09:20 10° 316° (NW) 2,526 11.2 -19.7°
Maximum altitude 22:11:18 12° 336° (NNW) 2,416 11.3 -19.8°
Drops below altitude 10° 22:13:15 10° 356° (N) 2,538 11.3 -20.0°
Sets 22:17:50 0° 28° (NNE) 3,498 11.5 -20.2°
